Change the Weather History Date:

Tuesday, April 23, 2013

  Actual Average Record
Temperature  
Mean Temperature 27 °F 47 °F  
Max Temperature 39 °F 63 °F 89 °F (2012)
Min Temperature 15 °F 32 °F 15 °F (2013)
Degree Days  
Heating Degree Days 38 18  
Month to date heating degree days 681 492  
Since 1 July heating degree days 6450 6649  
Cooling Degree Days 0 0  
Month to date cooling degree days 0 0  
Year to date cooling degree days 0 0  
Moisture  
Dew Point 18 °F    
Average Humidity 68    
Maximum Humidity 92    
Minimum Humidity 44    
Precipitation  
Precipitation 0.00 in 0.08 in 1.25 in (1942)
Month to date precipitation 0.78 1.39  
Year to date precipitation 2.32 3.59  
Sea Level Pressure  
Sea Level Pressure 30.35 in    
Wind  
Wind Speed 7 mph (West)    
Max Wind Speed 14 mph    
Max Gust Speed 20 mph    
Visibility 8 miles    
Events      
T = Trace of Precipitation, MM = Missing Value Source: NWS Daily Summary

Daily Weather History Graph

Daily Weather History Graph

Search for Another Location

Airport or City:

Trip Planner

Search our weather history database for the weather conditions in past years. The results will help you decide how hot, cold, wet, or windy it might be!

Date:

Astronomy

Apr. 23, 2013 Rise Set
Actual Time 5:57 AM MDT 7:44 PM MDT
Civil Twilight 5:27 AM MDT 8:14 PM MDT
Nautical Twilight 4:50 AM MDT 8:51 PM MDT
Astronomical Twilight 4:11 AM MDT 9:31 PM MDT
Moon 5:39 PM MDT (4/23) 4:30 AM MDT (4/23)
Length of Visible Light 14h 46m
Length of Day
13h 46m
Waxing Gibbous, 94% of the Moon is Illuminated
Apr 23
Waxing Gibbous
Apr 25
Full
May 2
Last Quarter
May 9
New
May 17
First Quarter

Hourly Weather History & Observations

Time (MDT) Temp. Windchill Dew Point Humidity Pressure Visibility Wind Dir Wind Speed Gust Speed Precip Events Conditions
12:53 AM 18.0 °F 12.7 °F 15.1 °F 88% 30.50 in 7.0 mi SW 3.5 mph - N/A   Clear
1:53 AM 16.0 °F 7.4 °F 12.9 °F 88% 30.50 in 8.0 mi SW 5.8 mph - N/A   Clear
2:53 AM 17.1 °F 10.0 °F 12.9 °F 84% 30.48 in 8.0 mi SSW 4.6 mph - N/A   Overcast
3:53 AM 18.0 °F 12.7 °F 15.1 °F 88% 30.46 in 7.0 mi WSW 3.5 mph - N/A   Clear
4:53 AM 17.1 °F - 14.0 °F 88% 30.45 in 8.0 mi Calm Calm - N/A   Scattered Clouds
5:53 AM 19.0 °F - 14.0 °F 81% 30.45 in 8.0 mi Calm Calm - N/A   Partly Cloudy
6:25 AM 21.2 °F 14.9 °F 17.6 °F 86% 30.30 in 7.0 mi WNW 4.6 mph - N/A   Mostly Cloudy
6:53 AM 21.0 °F 9.3 °F 18.0 °F 88% 30.45 in 6.0 mi WSW 11.5 mph - N/A   Overcast
7:53 AM 21.9 °F 11.7 °F 18.0 °F 85% 30.46 in 6.0 mi West 9.2 mph - N/A   Mostly Cloudy
8:02 AM 21.2 °F 10.9 °F 19.4 °F 93% 30.31 in 6.0 mi West 9.2 mph - N/A   Scattered Clouds
8:26 AM 24.8 °F 16.9 °F 19.4 °F 80% 30.31 in 6.0 mi West 6.9 mph - N/A   Mostly Cloudy
8:53 AM 24.1 °F 14.4 °F 19.9 °F 84% 30.45 in 6.0 mi SW 9.2 mph - N/A   Overcast
9:20 AM 26.6 °F 17.5 °F 21.2 °F 80% 30.29 in 7.0 mi WSW 9.2 mph - N/A   Overcast
9:44 AM 26.6 °F 19.1 °F 19.4 °F 74% 30.28 in 7.0 mi SW 6.9 mph - N/A   Overcast
9:53 AM 27.0 °F 18.0 °F 21.9 °F 81% 30.43 in 8.0 mi SW 9.2 mph - N/A   Overcast
10:53 AM 28.9 °F 19.8 °F 19.9 °F 69% 30.42 in 9.0 mi WNW 10.4 mph - N/A   Mostly Cloudy
11:10 AM 30.2 °F 20.8 °F 19.4 °F 64% 30.27 in 9.0 mi WNW 11.5 mph - N/A   Mostly Cloudy
11:53 AM 30.9 °F 23.5 °F 15.1 °F 52% 30.40 in 10.0 mi NW 8.1 mph - N/A   Overcast
12:53 PM 30.9 °F 21.7 °F 16.0 °F 54% 30.37 in 9.0 mi NW 11.5 mph 19.6 mph N/A   Overcast
1:53 PM 33.1 °F 26.1 °F 17.1 °F 52% 30.34 in 10.0 mi West 8.1 mph 17.3 mph N/A   Overcast
2:53 PM 35.1 °F 27.9 °F 17.1 °F 48% 30.32 in 10.0 mi WNW 9.2 mph - N/A   Scattered Clouds
3:53 PM 36.0 °F 32.1 °F 18.0 °F 48% 30.29 in 10.0 mi Variable 4.6 mph - N/A   Clear
4:53 PM 37.0 °F 31.0 °F 18.0 °F 46% 30.27 in 10.0 mi WNW 8.1 mph - N/A   Clear
5:53 PM 37.9 °F 30.5 °F 17.1 °F 43% 30.25 in 10.0 mi WNW 11.5 mph - N/A   Clear
6:53 PM 37.9 °F 32.7 °F 18.0 °F 45% 30.24 in 10.0 mi WNW 6.9 mph - N/A   Clear
7:53 PM 34.0 °F 29.8 °F 23.0 °F 64% 30.25 in 10.0 mi West 4.6 mph - N/A   Clear
8:53 PM 30.0 °F 24.1 °F 24.1 °F 79% 30.26 in 10.0 mi WSW 5.8 mph - N/A   Clear
9:53 PM 28.9 °F 22.8 °F 23.0 °F 78% 30.27 in 10.0 mi WSW 5.8 mph - N/A   Clear
10:53 PM 28.0 °F 21.7 °F 24.1 °F 85% 30.26 in 9.0 mi WSW 5.8 mph - N/A   Clear
11:53 PM 27.0 °F 18.0 °F 23.0 °F 85% 30.25 in 8.0 mi WSW 9.2 mph - N/A   Clear